IRIDIUM 42

Satellite information

Favourite Embed

Satellite Type and Status

PAYLOADIN ORBIT

Key statistics

Satellite IRIDIUM 42 at a glance.

Uptime

10182

Days in orbit

Revolutions

≈ 14.4

Per day

Orbit

LEO

Low Earth Orbit

Inclination

86.4

Latest

Satellite identification and parameters

Extended collection of information and parameters for IRIDIUM 42.

Object identification

Identified? True

Debris? False

Object name: IRIDIUM 42

International designator: 1997-077A

Object number (NORAD): 25077

Object ID (CCSDS): 25077

Country: UNITED STATES OF AMERICA (US)

Current information (Y/N): Y

RCS size: LARGE

Orbital parameters

Period: 100.245 minutes

Inclination: 86.4026 deg

SMA: 7148.305 km

Apoapsis: 772.216 km

Periapsis: 768.123 km

RAAN: 185.3432 deg

Eccentricy: 0.0002863

Argument of periapsis: 76.7558 deg

Mean anomaly: 283.3958 deg

Mean motion: 14.36475376 rev/day

Mean motion (dot): 0.00000581 rev/day2

B* drag term: 0.00019163094 1/REarth

Two-line elements (TLE)

Creation date: Oct. 24, 2025, 2:48 a.m.

Reference frame: TEME

Reference center: EARTH

Epoch: Oct. 23, 2025, 11:32 p.m. UTC

TLE line 0: 0 IRIDIUM 42

TLE line 1: 1 25077U 97077A 25296.98108722 .00000581 00000-0 19163-3 0 9999

TLE line 2: 2 25077 86.4026 185.3432 0002863 76.7558 283.3958 14.36475376459688

Live tracking on map

Real-time ground track for satellite IRIDIUM 42.

In-orbit conjunctions

A list of the most updated potential collisions computed for object IRIDIUM 42.

Target Orbit TCA Probability of collision Miss distance Type
FENGYUN 1C DEB SSO 2025-10-16 15:40:58 0.0003936895 441.0 (m) DEBRIS
CZ-6A DEB SSO 2025-06-08 23:53:17 0.00016066 667.0 (m) DEBRIS
FENGYUN 1C DEB SSO 2025-03-29 15:13:54 0.0002367582 463.0 (m) DEBRIS
NOAA 16 DEB SSO 2024-12-20 05:02:39 0.0002229383 479.0 (m) DEBRIS
FENGYUN 1C DEB SSO 2024-11-17 17:48:11 0.0001004061 597.0 (m) DEBRIS

Associated space launch

Iridium provides global mobile telecommunications services using a constellation of 66 low earth orbit satellites in a 86.4° inclined orbit. Although 77 satellites were originally envisioned for the system and spawned the name based on the 77th element in the periodic table, the system has been scaled back. Motorola's Satellite Communications Group designed and manufactured the Iridium satellites with Lockheed Martin providing the LM-700A spacecraft buses.

IRIDIUM 42 was lifted into orbit during the mission ‘Long March 2C/SD | Iridium 42 & 44’, on board a Long March 2C/SD space rocket.

The launch took place on Dec. 8, 1997, 7:16 a.m. from Launch Complex 7.

For more information about the launch, click the button.

Launch to space Long March 2C/SD | Iridium 42 & 44
Long March 2C/SD | Iridium 42 & 44

Agency: N/A

Status: Launch Successful

Launch date: Dec. 8, 1997, 7:16 a.m. UTC

Rocket: Long March 2C/SD

Launch pad: Launch Complex 7

Location: Taiyuan Satellite Launch Center, People's Republic of China

...

Latest news about this satellite

There are no fresh news available about this satellite. Check back as we update our databases every day.


Newsletter sign-up

Weekly statistics, charts and insights to help you stay on top of the space industry.